CW8859 Weather Reports


time (UTC)temp
F
wind
direction
speed
knots
gust
knots
rain 1hr
in
rain 24hr
in
rain mn
in
humidity
%
barometer
mb
20260508014557 0 0.0 0.0 0.00 0.00 0.00 1009.9
20260508013042 0 0.0 0.0 0.00 0.00 0.00 1009.9
20260508011535 0 0.0 0.0 0.00 0.00 0.00 1010.0
20260508010034 64 22 0.0 0.0 0.00 0.00 0.00 55 1009.9
20260508004528 65 22 0.0 0.0 0.00 0.00 0.00 52 1010.0
20260508003028 67 22 0.0 0.0 0.00 0.00 0.00 48 1010.0
20260508001528 68 22 0.0 0.0 0.00 0.00 0.00 46 1010.0
20260508000026 69 21 0.0 0.0 0.00 0.00 0.00 45 1010.0
20260507234526 70 22 0.0 0.0 0.00 0.00 0.00 43 1010.0
20260507233033 70 22 0.0 0.0 0.00 0.00 0.00 42 1010.0
20260507231512 71 22 0.0 0.0 0.00 0.00 0.00 42 1009.9
20260507230012 71 22 0.0 0.0 0.00 0.00 0.00 42 1010.0
20260507224508 70 22 0.0 0.0 0.00 0.00 0.00 41 1010.1
20260507223010 70 22 0.0 0.0 0.00 0.00 0.00 41 1010.3
20260507221510 71 18 0.0 0.0 0.00 0.00 0.00 39 1010.4
20260507220004 70 22 0.0 0.0 0.00 0.00 0.00 42 1010.5
20260507214504 71 21 0.0 0.0 0.00 0.00 0.00 39 1010.6
20260507213053 72 19 0.0 0.0 0.00 0.00 0.00 39 1010.7
20260507211551 73 21 0.0 0.0 0.00 0.00 0.00 38 1010.8
20260507210057 73 21 0.0 0.0 0.00 0.00 0.00 39 1011.0
20260507204547 73 26 0.0 0.0 0.00 0.00 0.00 38 1011.3
20260507203102 72 22 0.0 0.0 0.00 0.00 0.00 38 1011.5
20260507201554 71 22 0.0 0.0 0.00 0.00 0.00 38 1011.8
20260507200058 70 19 0.0 0.0 0.00 0.00 0.00 39 1012.1
20260507194539 70 17 0.0 0.0 0.00 0.00 0.00 39 1012.4
20260507193026 71 17 0.0 0.0 0.00 0.00 0.00 41 1012.6
20260507191524 70 55 0.0 0.0 0.00 0.00 0.00 40 1012.7
20260507190023 70 25 0.0 0.0 0.00 0.00 0.00 38 1013.0
20260507184522 73 21 0.0 0.0 0.00 0.00 0.00 36 1013.0
20260507183021 74 22 0.0 0.0 0.00 0.00 0.00 36 1013.0
20260507181524 73 34 0.0 0.0 0.00 0.00 0.00 36 1013.1
20260507180022 72 22 0.0 0.0 0.00 0.00 0.00 38 1013.3
20260507174515 72 19 0.0 0.0 0.00 0.00 0.00 38 1013.5
20260507173003 73 20 0.0 0.0 0.00 0.00 0.00 36 1013.7
20260507171605 73 21 0.0 0.0 0.00 0.00 0.00 35 1013.9
20260507170103 73 20 0.0 0.0 0.00 0.00 0.00 35 1014.1
20260507164600 70 22 0.0 0.0 0.00 0.00 0.00 36 1014.3
20260507163052 71 21 0.0 0.0 0.00 0.00 0.00 37 1014.4
20260507161550 72 22 0.0 0.0 0.00 0.00 0.00 37 1014.5
20260507160049 71 22 0.0 0.0 0.00 0.00 0.00 38 1014.7
20260507154552 69 22 0.0 0.0 0.00 0.00 0.00 38 1014.6
20260507153033 69 22 0.0 0.0 0.00 0.00 0.00 38 1014.8
20260507151528 68 19 0.0 0.0 0.00 0.00 0.00 39 1014.9
20260507150027 68 19 0.0 0.0 0.00 0.00 0.00 39 1015.0
20260507144528 67 17 0.0 0.0 0.00 0.00 0.00 43 1015.2
20260507143022 65 15 0.0 0.0 0.00 0.00 0.00 47 1015.4
20260507141515 63 15 0.0 0.0 0.00 0.00 0.00 50 1015.4
20260507140010 62 15 0.0 0.0 0.00 0.00 0.00 54 1015.5
20260507134509 59 22 0.0 0.0 0.00 0.00 0.00 62 1015.7
20260507133100 55 22 0.0 0.0 0.00 0.00 0.00 75 1015.9
20260507131549 51 24 0.0 0.0 0.00 0.00 0.00 86 1016.1
20260507130018 46 25 0.0 0.0 0.00 0.00 0.00 75 1016.1
20260507124517 44 57 0.0 0.0 0.00 0.00 0.00 76 1016.0
20260507123111 42 57 0.0 0.0 0.00 0.00 0.00 77 1016.0
20260507121604 0 0.0 0.0 0.00 0.00 0.00 1015.8
20260507120054 0 0.0 0.0 0.00 0.00 0.00 1015.7
20260507114528 0 0.0 0.0 0.00 0.00 0.00 1015.6
20260507113024 0 0.0 0.0 0.00 0.00 0.00 1015.6
20260507111520 0 0.0 0.0 0.00 0.00 0.00 1015.5
20260507110016 0 0.0 0.0 0.00 0.00 0.00 1015.6
20260507104511 0 0.0 0.0 0.00 0.00 0.00 1015.5
20260507103008 0 0.0 0.0 0.00 0.00 0.00 1015.6
20260507101507 0 0.0 0.0 0.00 0.00 0.00 1015.7
20260507100103 0 0.0 0.0 0.00 0.00 0.00 1015.7
20260507094545 0 0.0 0.0 0.00 0.00 0.00 1015.6
20260507093044 0 0.0 0.0 0.00 0.00 0.00 1015.5
20260507091543 0 0.0 0.0 0.00 0.00 0.00 1015.5
20260507090038 0 0.0 0.0 0.00 0.00 0.00 1015.5
20260507084529 0 0.0 0.0 0.00 0.00 0.00 1015.5
20260507083031 0 0.0 0.0 0.00 0.00 0.00 1015.4
20260507081519 0 0.0 0.0 0.00 0.00 0.00 1015.5
20260507080019 0 0.0 0.0 0.00 0.00 0.00 1015.6
20260507074559 0 0.0 0.0 0.00 0.00 0.00 1015.7
20260507073105 0 0.0 0.0 0.00 0.00 0.00 1015.8
20260507071550 0 0.0 0.0 0.00 0.00 0.00 1016.0
20260507070046 0 0.0 0.0 0.00 0.00 0.00 1016.0
20260507064542 0 0.0 0.0 0.00 0.00 0.00 1016.3
20260507063037 0 0.0 0.0 0.00 0.00 0.00 1016.2
20260507061533 0 0.0 0.0 0.00 0.00 0.00 1016.2
20260507060029 0 0.0 0.0 0.00 0.00 0.00 1016.3
20260507054518 0 0.0 0.0 0.00 0.00 0.00 1016.4
20260507053008 0 0.0 0.0 0.00 0.00 0.00 1016.3
20260507051504 0 0.0 0.0 0.00 0.00 0.00 1016.4
20260507050100 0 0.0 0.0 0.00 0.00 0.00 1016.5
20260507044555 0 0.0 0.0 0.00 0.00 0.00 1016.5
20260507043051 0 0.0 0.0 0.00 0.00 0.00 1016.4
20260507041548 0 0.0 0.0 0.00 0.00 0.00 1016.4
20260507040043 0 0.0 0.0 0.00 0.00 0.00 1016.5
20260507034520 0 0.0 0.0 0.00 0.00 0.00 1016.5
20260507033016 0 0.0 0.0 0.00 0.00 0.00 1016.6
20260507031600 0 0.0 0.0 0.00 0.00 0.00 1016.5
20260507030056 0 0.0 0.0 0.00 0.00 0.00 1016.4
20260507024604 0 0.0 0.0 0.00 0.00 0.00 1016.4
20260507023050 0 0.0 0.0 0.00 0.00 0.00 1016.2
20260507021546 0 0.0 0.0 0.00 0.00 0.00 1016.0
20260507020057 0 0.0 0.0 0.00 0.00 0.00 1015.9